CCA2535 ZUTF-ZUHY

Flight info

Callsign CCA2535
Flight time 0h 40m
Altitude 30100
Route BOKRR9 BOKIR DCT 323139N1022125E
Aircraft B738/M-SDE2E3FGHIRWXY/LB1

Departure

Time 2026-05-04 15:01
Airport Chengdu Tianfu International Airport (ZUTF)

Arrival

Time 2026-05-04 15:41
Airport Hongyuan Airport (ZUHY)
Time Latitude Longitude Altitude Speed Heading
2026-05-04 14:40 30.30863 104.43688 1459 ft 0 kts 32°
2026-05-04 14:50 30.30857 104.43684 1459 ft 2 kts 32°
2026-05-04 14:50 30.30844 104.43675 1459 ft 2 kts 32°
2026-05-04 14:50 30.30831 104.43665 1459 ft 2 kts 32°
2026-05-04 14:50 30.30819 104.43655 1459 ft 1 kts 32°
2026-05-04 14:51 30.30810 104.43649 1459 ft 2 kts 19°
2026-05-04 14:51 30.30795 104.43649 1459 ft 2 kts 345°
2026-05-04 14:51 30.30782 104.43656 1459 ft 2 kts 315°
2026-05-04 14:51 30.30776 104.43666 1459 ft 0 kts 295°
2026-05-04 14:52 30.30773 104.43674 1459 ft 0 kts 291°
2026-05-04 14:52 30.30773 104.43675 1459 ft 0 kts 291°
2026-05-04 14:52 30.30773 104.43674 1459 ft 0 kts 291°
2026-05-04 14:54 30.30778 104.43658 1459 ft 5 kts 291°
2026-05-04 14:54 30.30799 104.43599 1459 ft 9 kts 291°
2026-05-04 14:54 30.30827 104.43517 1459 ft 10 kts 291°
2026-05-04 14:54 30.30855 104.43437 1459 ft 10 kts 293°
2026-05-04 14:55 30.30865 104.43356 1459 ft 10 kts 241°
2026-05-04 14:55 30.30799 104.43312 1459 ft 11 kts 200°
2026-05-04 14:55 30.30727 104.43271 1459 ft 11 kts 231°
2026-05-04 14:55 30.30735 104.43178 1459 ft 13 kts 290°
2026-05-04 14:56 30.30774 104.43069 1459 ft 15 kts 292°
2026-05-04 14:56 30.30813 104.42956 1459 ft 14 kts 286°
2026-05-04 14:56 30.30759 104.42879 1459 ft 14 kts 201°
2026-05-04 14:56 30.30650 104.42829 1459 ft 19 kts 202°
2026-05-04 14:57 30.30508 104.42763 1459 ft 24 kts 202°
2026-05-04 14:57 30.30338 104.42682 1459 ft 29 kts 201°
2026-05-04 14:57 30.30146 104.42592 1459 ft 28 kts 203°
2026-05-04 14:57 30.29967 104.42508 1459 ft 27 kts 201°
2026-05-04 14:58 30.29795 104.42429 1459 ft 25 kts 201°
2026-05-04 14:58 30.29626 104.42349 1459 ft 27 kts 202°
2026-05-04 14:58 30.29446 104.42265 1459 ft 28 kts 201°
2026-05-04 14:58 30.29264 104.42179 1459 ft 27 kts 202°
2026-05-04 14:59 30.29089 104.42097 1459 ft 25 kts 201°
2026-05-04 14:59 30.28967 104.42017 1459 ft 15 kts 255°
2026-05-04 14:59 30.29056 104.41785 1459 ft 16 kts 332°
2026-05-04 15:00 30.29192 104.41817 1459 ft 38 kts 22°
2026-05-04 15:00 30.29661 104.42037 1460 ft 106 kts 21°
2026-05-04 15:00 30.30540 104.42451 1460 ft 164 kts 22°
2026-05-04 15:01 30.32868 104.43574 2495 ft 192 kts 24°
2026-05-04 15:01 30.34237 104.43881 2995 ft 213 kts
2026-05-04 15:01 30.35768 104.43854 3583 ft 228 kts
2026-05-04 15:01 30.37385 104.44053 4171 ft 245 kts
2026-05-04 15:02 30.39118 104.44401 4806 ft 262 kts 14°
2026-05-04 15:02 30.40865 104.45175 5457 ft 277 kts 27°
2026-05-04 15:02 30.42602 104.46290 6219 ft 288 kts 30°
2026-05-04 15:02 30.44319 104.47459 7190 ft 290 kts 30°
2026-05-04 15:03 30.46053 104.48624 8091 ft 294 kts 30°
2026-05-04 15:03 30.47845 104.49797 8923 ft 299 kts 29°
2026-05-04 15:03 30.49660 104.50965 9794 ft 302 kts 28°
2026-05-04 15:03 30.51508 104.52146 10580 ft 308 kts 28°
2026-05-04 15:04 30.53425 104.53369 11138 ft 323 kts 28°
2026-05-04 15:04 30.55425 104.54645 11689 ft 336 kts 28°
2026-05-04 15:04 30.57539 104.55996 12237 ft 350 kts 27°
2026-05-04 15:04 30.59684 104.57368 12733 ft 363 kts 27°
2026-05-04 15:05 30.61947 104.58817 13205 ft 377 kts 28°
2026-05-04 15:05 30.64282 104.60315 13638 ft 391 kts 27°
2026-05-04 15:05 30.66686 104.61857 14208 ft 399 kts 27°
2026-05-04 15:05 30.69124 104.63422 15030 ft 400 kts 27°
2026-05-04 15:06 30.71654 104.64755 15769 ft 400 kts 14°
2026-05-04 15:06 30.74389 104.65168 16564 ft 397 kts 357°
2026-05-04 15:07 30.84683 104.62470 19298 ft 404 kts 343°
2026-05-04 15:07 30.87398 104.61646 20000 ft 407 kts 344°
2026-05-04 15:07 30.90146 104.60822 20697 ft 409 kts 344°
2026-05-04 15:08 30.92910 104.60000 21306 ft 413 kts 344°
2026-05-04 15:08 30.95684 104.59179 22015 ft 414 kts 343°
2026-05-04 15:08 30.98524 104.58340 22607 ft 418 kts 344°
2026-05-04 15:08 31.01314 104.57518 23258 ft 419 kts 344°
2026-05-04 15:09 31.04179 104.56674 23802 ft 422 kts 343°
2026-05-04 15:09 31.07049 104.55827 24359 ft 424 kts 343°
2026-05-04 15:09 31.09891 104.54988 24825 ft 428 kts 343°
2026-05-04 15:10 31.15652 104.53288 25856 ft 433 kts 343°
2026-05-04 15:10 31.18607 104.52412 26271 ft 437 kts 343°
2026-05-04 15:10 31.24456 104.50684 27732 ft 428 kts 343°
2026-05-04 15:11 31.27303 104.49845 28344 ft 426 kts 342°
2026-05-04 15:11 31.30196 104.48988 28946 ft 424 kts 343°
2026-05-04 15:11 31.33011 104.48151 29548 ft 421 kts 343°
2026-05-04 15:11 31.35852 104.47306 30024 ft 419 kts 342°
2026-05-04 15:12 31.38702 104.46455 30141 ft 422 kts 342°
2026-05-04 15:12 31.44390 104.44758 30185 ft 420 kts 342°
2026-05-04 15:13 31.50057 104.43072 30188 ft 420 kts 342°
2026-05-04 15:13 31.55716 104.41383 30226 ft 421 kts 343°
2026-05-04 15:14 31.61366 104.39692 30262 ft 420 kts 343°
2026-05-04 15:14 31.67031 104.37995 30268 ft 419 kts 343°
2026-05-04 15:15 31.72449 104.35680 30295 ft 414 kts 330°
2026-05-04 15:15 31.77122 104.31813 30325 ft 415 kts 318°
2026-05-04 15:16 31.80777 104.26563 30321 ft 416 kts 304°
2026-05-04 15:16 31.82248 104.23631 30327 ft 417 kts 302°
2026-05-04 15:17 31.86400 104.14661 30350 ft 418 kts 301°
2026-05-04 15:17 31.90551 104.05640 30363 ft 418 kts 301°
2026-05-04 15:18 31.93318 103.99663 30359 ft 417 kts 302°
2026-05-04 15:19 31.97480 103.90667 30384 ft 416 kts 302°
2026-05-04 15:19 32.01621 103.81705 30426 ft 416 kts 302°
2026-05-04 15:20 32.04367 103.75753 30530 ft 417 kts 302°
2026-05-04 15:20 32.07116 103.69770 30582 ft 415 kts 302°
2026-05-04 15:21 32.09865 103.63782 30588 ft 412 kts 302°
2026-05-04 15:22 32.13936 103.54900 30633 ft 413 kts 302°
2026-05-04 15:22 32.18037 103.45939 30645 ft 412 kts 302°
2026-05-04 15:23 32.20748 103.39996 30626 ft 412 kts 303°
2026-05-04 15:23 32.23449 103.34072 30609 ft 412 kts 302°
2026-05-04 15:24 32.28810 103.22278 29116 ft 411 kts 303°
2026-05-04 15:25 32.30138 103.19358 28453 ft 409 kts 302°
2026-05-04 15:25 32.31474 103.16408 28005 ft 402 kts 302°
2026-05-04 15:25 32.32790 103.13498 27384 ft 400 kts 302°
2026-05-04 15:26 32.35384 103.07770 26158 ft 395 kts 301°
2026-05-04 15:26 32.36666 103.04932 25565 ft 392 kts 301°
2026-05-04 15:26 32.39225 102.99262 24377 ft 387 kts 300°
2026-05-04 15:27 32.40470 102.96497 23779 ft 385 kts 301°
2026-05-04 15:27 32.43005 102.90955 22578 ft 379 kts 303°
2026-05-04 15:28 32.46363 102.86362 22377 ft 356 kts 316°
2026-05-04 15:28 32.48118 102.84409 22375 ft 339 kts 317°
2026-05-04 15:28 32.51416 102.80826 22379 ft 307 kts 318°
2026-05-04 15:29 32.52965 102.79150 22376 ft 297 kts 318°
2026-05-04 15:30 32.59096 102.72527 20639 ft 299 kts 318°
2026-05-04 15:30 32.63723 102.67582 19397 ft 298 kts 318°
2026-05-04 15:31 32.66819 102.64311 18539 ft 299 kts 318°
2026-05-04 15:31 32.68376 102.62682 18169 ft 298 kts 318°
2026-05-04 15:32 32.73018 102.57845 16998 ft 296 kts 318°
2026-05-04 15:32 32.76103 102.54630 16244 ft 294 kts 318°
2026-05-04 15:33 32.79148 102.51421 15693 ft 286 kts 314°
2026-05-04 15:34 32.79607 102.45391 15701 ft 242 kts 244°
2026-05-04 15:34 32.78737 102.43763 15683 ft 220 kts 239°
2026-05-04 15:34 32.77185 102.40950 15303 ft 190 kts 240°
2026-05-04 15:35 32.75844 102.38482 14911 ft 173 kts 240°
2026-05-04 15:35 32.75188 102.37289 14699 ft 172 kts 239°
2026-05-04 15:35 32.74538 102.36102 14488 ft 172 kts 240°
2026-05-04 15:36 32.73239 102.33730 14476 ft 174 kts 239°
2026-05-04 15:36 32.72583 102.32531 14479 ft 173 kts 239°
2026-05-04 15:36 32.71932 102.31343 14483 ft 173 kts 238°
2026-05-04 15:37 32.71242 102.30198 14277 ft 168 kts 229°
2026-05-04 15:37 32.70245 102.29494 13726 ft 177 kts 190°
2026-05-04 15:37 32.69032 102.29669 13310 ft 175 kts 164°
2026-05-04 15:37 32.67880 102.30080 13214 ft 170 kts 165°
2026-05-04 15:38 32.66732 102.30466 13223 ft 176 kts 166°
2026-05-04 15:38 32.65539 102.30867 13223 ft 175 kts 165°
2026-05-04 15:38 32.64373 102.31263 13225 ft 175 kts 165°
2026-05-04 15:38 32.63203 102.31660 13223 ft 176 kts 165°
2026-05-04 15:39 32.62023 102.32067 13130 ft 178 kts 165°
2026-05-04 15:39 32.60831 102.32483 12844 ft 173 kts 165°
2026-05-04 15:39 32.58558 102.33272 12424 ft 170 kts 165°
2026-05-04 15:40 32.57424 102.33675 12210 ft 169 kts 164°
2026-05-04 15:40 32.56298 102.34078 11991 ft 168 kts 164°
2026-05-04 15:40 32.55188 102.34478 11774 ft 166 kts 163°
2026-05-04 15:40 32.54089 102.34879 11639 ft 156 kts 162°
2026-05-04 15:41 32.53280 102.35173 11644 ft 92 kts 162°
2026-05-04 15:41 32.52815 102.35342 11646 ft 53 kts 162°
2026-05-04 15:41 32.52551 102.35436 11648 ft 28 kts 162°
2026-05-04 15:41 32.52426 102.35468 11649 ft 10 kts 174°
2026-05-04 15:42 32.52412 102.35477 11649 ft 1 kts 60°
2026-05-04 15:42 32.52459 102.35469 11649 ft 11 kts 342°
2026-05-04 15:42 32.52560 102.35431 11648 ft 19 kts 343°
2026-05-04 15:42 32.52676 102.35392 11647 ft 12 kts 356°
2026-05-04 15:43 32.52730 102.35479 11647 ft 15 kts 72°
2026-05-04 15:43 32.52746 102.35585 11647 ft 11 kts 121°
2026-05-04 15:43 32.52693 102.35640 11648 ft 9 kts 91°
2026-05-04 15:43 32.52702 102.35692 11648 ft 1 kts 71°
2026-05-04 15:44 32.52703 102.35693 11648 ft 0 kts 71°